EW0908 Weather Reports


Display with metric or nautical units.
time (UTC)temp
F
wind
direction
speed
MPH
gust
MPH
rain 1hr
in
rain 24hr
in
rain mn
in
humidity
%
barometer
mb
20171022095306 72 356 0.0 0.0 0.00 0.00 0.00 62 1014.4
20171022094806 72 346 0.0 2.0 0.00 0.00 0.00 62 1014.6
20171022094306 71 26 2.0 5.0 0.00 0.00 0.00 62 1014.6
20171022093806 71 0 0.0 2.0 0.00 0.00 0.00 63 1014.6
20171022093306 71 8 0.0 0.0 0.00 0.00 0.00 62 1014.6
20171022092806 71 2 0.0 0.0 0.00 0.00 0.00 63 1014.6
20171022092305 71 9 0.0 0.0 0.00 0.00 0.00 62 1014.9
20171022091805 71 13 0.0 0.0 0.00 0.00 0.00 62 1014.9
20171022091305 71 7 0.0 0.0 0.00 0.00 0.00 61 1014.9
20171022090806 71 24 0.0 0.0 0.00 0.00 0.00 63 1014.9
20171022090305 71 1 0.0 2.0 0.00 0.00 0.00 63 1014.9
20171022085808 71 12 0.0 0.0 0.00 0.00 0.00 62 1014.9
20171022085306 71 0 0.0 0.0 0.00 0.00 0.00 62 1015.1
20171022084805 71 7 0.0 0.0 0.00 0.00 0.00 61 1015.2
20171022084306 71 354 0.0 0.0 0.00 0.00 0.00 61 1015.2
20171022083805 71 25 0.0 5.0 0.00 0.00 0.00 63 1015.2
20171022083305 71 358 2.0 5.0 0.00 0.00 0.00 63 1015.2
20171022082805 72 353 0.0 2.0 0.00 0.00 0.00 62 1015.2
20171022082305 72 23 0.0 2.0 0.00 0.00 0.00 60 1015.2
20171022081805 72 353 0.0 2.0 0.00 0.00 0.00 60 1015.2
20171022081305 71 33 0.0 2.0 0.00 0.00 0.00 56 1015.2
20171022080805 71 22 0.0 0.0 0.00 0.00 0.00 57 1015.2
20171022080305 70 18 0.0 0.0 0.00 0.00 0.00 56 1015.6
20171022075806 70 333 0.0 0.0 0.00 0.00 0.00 56 1015.6
20171022075306 69 12 0.0 0.0 0.00 0.00 0.00 59 1015.6
20171022074805 69 12 0.0 0.0 0.00 0.00 0.00 61 1015.6
20171022074305 68 352 0.0 0.0 0.00 0.00 0.00 63 1015.6
20171022073806 68 0 0.0 0.0 0.00 0.00 0.00 67 1015.6
20171022073305 68 24 0.0 0.0 0.00 0.00 0.00 67 1015.6
20171022072805 68 8 0.0 0.0 0.00 0.00 0.00 68 1015.6
20171022072306 67 14 0.0 0.0 0.00 0.00 0.00 68 1015.6
20171022071805 67 0 0.0 0.0 0.00 0.00 0.00 71 1015.6
20171022071305 67 1 0.0 0.0 0.00 0.00 0.00 70 1015.6
20171022070805 67 16 0.0 0.0 0.00 0.00 0.00 71 1015.6
20171022070305 67 315 0.0 0.0 0.00 0.00 0.00 71 1015.7
20171022065805 67 7 0.0 0.0 0.00 0.00 0.00 73 1015.7
20171022065305 67 0 0.0 0.0 0.00 0.00 0.00 71 1015.6
20171022064805 67 16 0.0 0.0 0.00 0.00 0.00 72 1015.6
20171022064305 66 358 0.0 0.0 0.00 0.00 0.00 72 1015.6
20171022063805 66 358 0.0 0.0 0.00 0.00 0.00 73 1015.7
20171022063305 66 327 0.0 0.0 0.00 0.00 0.00 72 1015.6
20171022062805 65 0 0.0 0.0 0.00 0.00 0.00 74 1015.6
20171022062305 65 41 0.0 0.0 0.00 0.00 0.00 77 1015.6
20171022061805 65 354 0.0 0.0 0.00 0.00 0.00 77 1015.6
20171022061305 65 329 0.0 0.0 0.00 0.00 0.00 78 1015.6
20171022060805 65 294 0.0 0.0 0.00 0.00 0.00 78 1015.6
20171022060305 65 282 0.0 0.0 0.00 0.00 0.00 77 1015.6
20171022055805 65 330 0.0 0.0 0.00 0.00 0.00 77 1015.6
20171022055305 65 317 0.0 0.0 0.00 0.00 0.00 76 1015.6
20171022054805 64 330 0.0 0.0 0.00 0.00 0.00 72 1015.2
20171022054305 63 234 0.0 0.0 0.00 0.00 0.00 71 1015.2
20171022053805 63 236 0.0 0.0 0.00 0.00 0.00 75 1015.2
20171022053305 62 209 0.0 0.0 0.00 0.00 0.00 78 1015.2
20171022052805 62 230 0.0 0.0 0.00 0.00 0.00 80 1015.2
20171022052305 62 209 0.0 0.0 0.00 0.00 0.00 82 1015.2
20171022051805 62 244 0.0 0.0 0.00 0.00 0.00 83 1015.2
20171022051305 62 250 0.0 0.0 0.00 0.00 0.00 84 1015.2
20171022050805 62 338 0.0 0.0 0.00 0.00 0.00 85 1015.2
20171022050305 62 280 0.0 0.0 0.00 0.00 0.00 85 1015.2
20171022045804 62 337 0.0 0.0 0.00 0.00 0.00 85 1015.2
20171022045305 62 358 0.0 0.0 0.00 0.00 0.00 86 1015.0
20171022044805 62 352 0.0 0.0 0.00 0.00 0.00 85 1014.9
20171022044304 62 322 0.0 0.0 0.00 0.00 0.00 85 1014.9
20171022043805 62 308 0.0 0.0 0.00 0.00 0.00 85 1014.9
20171022043305 62 274 0.0 0.0 0.00 0.00 0.00 85 1014.9
20171022042805 62 300 0.0 0.0 0.00 0.00 0.00 84 1015.2
20171022042305 62 265 0.0 0.0 0.00 0.00 0.00 84 1015.1
20171022041805 62 219 0.0 0.0 0.00 0.00 0.00 84 1014.9
20171022041304 62 291 0.0 0.0 0.00 0.00 0.00 84 1015.2
20171022040805 62 275 0.0 0.0 0.00 0.00 0.00 84 1014.9
20171022040305 62 284 0.0 0.0 0.00 0.00 0.00 83 1015.1
20171022035804 62 297 0.0 0.0 0.00 0.00 0.00 83 1014.9
20171022035305 62 294 0.0 0.0 0.00 0.00 0.00 82 1014.9
20171022034804 62 280 0.0 0.0 0.00 0.00 0.00 82 1015.1
20171022034305 62 294 0.0 0.0 0.00 0.00 0.00 82 1014.9
20171022033804 62 298 0.0 0.0 0.00 0.00 0.00 81 1015.2
20171022033304 62 326 0.0 0.0 0.00 0.00 0.00 80 1014.9
20171022032804 62 281 0.0 0.0 0.00 0.00 0.00 80 1014.9
20171022032304 62 308 0.0 0.0 0.00 0.00 0.00 80 1014.9
20171022031805 62 263 0.0 0.0 0.00 0.00 0.00 79 1014.9
20171022031304 62 242 0.0 0.0 0.00 0.00 0.00 80 1014.9
20171022030805 62 264 0.0 0.0 0.00 0.00 0.00 80 1014.9
20171022030305 62 263 0.0 0.0 0.00 0.00 0.00 80 1014.9
20171022025804 62 243 0.0 0.0 0.00 0.00 0.00 81 1014.9
20171022025305 62 234 0.0 0.0 0.00 0.00 0.00 81 1014.9
20171022024805 62 236 0.0 0.0 0.00 0.00 0.00 81 1014.9
20171022024305 62 250 0.0 0.0 0.00 0.00 0.00 81 1014.9
20171022023804 62 221 0.0 0.0 0.00 0.00 0.00 81 1014.9
20171022023304 62 243 0.0 0.0 0.00 0.00 0.00 81 1014.9
20171022022805 62 333 0.0 0.0 0.00 0.00 0.00 81 1014.9
20171022022304 62 141 0.0 0.0 0.00 0.00 0.00 81 1014.9
20171022021804 62 168 0.0 0.0 0.00 0.00 0.00 80 1014.9
20171022021305 62 173 0.0 0.0 0.00 0.00 0.00 80 1014.9
20171022020804 62 175 0.0 0.0 0.00 0.00 0.00 80 1014.9
20171022020304 62 141 0.0 0.0 0.00 0.00 0.00 79 1014.9
20171022015804 62 150 0.0 2.0 0.00 0.00 0.00 79 1014.9
20171022015305 62 137 1.0 2.0 0.00 0.00 0.00 78 1014.9
20171022014804 62 168 2.0 5.0 0.00 0.00 0.00 78 1014.9
20171022014304 62 173 1.0 5.0 0.00 0.00 0.00 79 1014.9
20171022013805 62 156 2.0 5.0 0.00 0.00 0.00 78 1015.1
20171022013304 62 167 0.0 5.0 0.00 0.00 0.00 78 1014.9
20171022012804 62 155 2.0 5.0 0.00 0.00 0.00 78 1015.2
20171022012304 62 176 0.0 0.0 0.00 0.00 0.00 79 1015.2
20171022011804 62 74 0.0 5.0 0.00 0.00 0.00 79 1015.0
20171022011305 62 164 0.0 2.0 0.00 0.00 0.00 79 1015.2
20171022010804 62 149 0.0 0.0 0.00 0.00 0.00 78 1015.2
20171022010304 62 174 0.0 0.0 0.00 0.00 0.00 79 1015.2
20171022005805 62 153 0.0 0.0 0.00 0.00 0.00 79 1015.6
20171022005304 63 168 0.0 0.0 0.00 0.00 0.00 80 1015.4
20171022004804 63 228 0.0 0.0 0.00 0.00 0.00 80 1015.2
20171022004304 63 159 0.0 0.0 0.00 0.00 0.00 80 1015.2
20171022003804 63 299 0.0 0.0 0.00 0.00 0.00 80 1015.2
20171022003304 63 315 0.0 0.0 0.00 0.00 0.00 79 1015.5
20171022002804 64 341 0.0 0.0 0.00 0.00 0.00 79 1015.2
20171022002304 64 283 0.0 0.0 0.00 0.00 0.00 78 1015.2
20171022001804 64 272 0.0 0.0 0.00 0.00 0.00 78 1015.2
20171022001304 64 306 0.0 0.0 0.00 0.00 0.00 79 1015.6
20171022000804 63 265 0.0 0.0 0.00 0.00 0.00 79 1015.6
20171022000304 63 314 0.0 0.0 0.00 0.00 0.00 78 1015.6
20171021235803 63 290 0.0 0.0 0.00 0.00 0.00 78 1015.6
20171021235304 63 304 0.0 0.0 0.00 0.00 0.00 79 1015.6
20171021234804 63 336 0.0 0.0 0.00 0.00 0.00 80 1015.8
20171021234308 63 339 0.0 0.0 0.00 0.00 0.00 81 1015.7
20171021233808 63 347 0.0 0.0 0.00 0.00 0.00 81 1015.6
20171021233309 63 331 0.0 0.0 0.00 0.00 0.00 80 1015.8
20171021232808 63 58 0.0 0.0 0.00 0.00 0.00 80 1015.8
20171021232307 63 171 0.0 0.0 0.00 0.00 0.00 80 1015.9
20171021231808 63 41 0.0 0.0 0.00 0.00 0.00 80 1015.9
20171021231308 64 345 0.0 0.0 0.00 0.00 0.00 80 1015.9
20171021230807 64 297 0.0 0.0 0.00 0.00 0.00 79 1015.9
20171021230308 64 338 0.0 0.0 0.00 0.00 0.00 79 1015.9
20171021225808 64 204 0.0 2.0 0.00 0.00 0.00 79 1015.9
20171021225308 64 198 0.0 0.0 0.00 0.00 0.00 79 1015.9
20171021224807 64 208 0.0 2.0 0.00 0.00 0.00 79 1015.7
20171021224308 64 223 1.0 2.0 0.00 0.00 0.00 78 1015.9
20171021223808 64 198 0.0 0.0 0.00 0.00 0.00 78 1015.9
20171021223308 64 152 0.0 0.0 0.00 0.00 0.00 78 1015.9
20171021222807 64 84 0.0 0.0 0.00 0.00 0.00 77 1015.9
20171021222308 64 323 0.0 0.0 0.00 0.00 0.00 76 1015.9
20171021221808 64 118 0.0 0.0 0.00 0.00 0.00 75 1015.9
20171021221307 64 279 0.0 0.0 0.00 0.00 0.00 75 1015.9
20171021220807 65 219 0.0 0.0 0.00 0.00 0.00 75 1015.9
20171021220308 65 153 0.0 0.0 0.00 0.00 0.00 75 1015.9
20171021215808 65 316 0.0 0.0 0.00 0.00 0.00 75 1015.9
20171021215308 65 209 0.0 0.0 0.00 0.00 0.00 75 1015.9
20171021214807 65 243 0.0 0.0 0.00 0.00 0.00 74 1015.9
20171021214307 65 253 0.0 0.0 0.00 0.00 0.00 73 1015.9
20171021213807 65 295 0.0 0.0 0.00 0.00 0.00 72 1016.0
20171021213307 65 267 0.0 0.0 0.00 0.00 0.00 71 1016.2
20171021212807 65 92 0.0 0.0 0.00 0.00 0.00 70 1015.9
20171021212308 65 236 0.0 0.0 0.00 0.00 0.00 70 1015.9
20171021211807 65 154 0.0 0.0 0.00 0.00 0.00 69 1016.0
20171021211307 65 113 0.0 0.0 0.00 0.00 0.00 68 1015.9
20171021210819 65 134 0.0 0.0 0.00 0.00 0.00 68 1016.2
20171021210307 65 130 0.0 5.0 0.00 0.00 0.00 68 1015.9
20171021205808 66 104 2.0 5.0 0.00 0.00 0.00 68 1015.9
20171021205307 66 90 2.0 5.0 0.00 0.00 0.00 69 1016.0
20171021204807 66 126 1.0 5.0 0.00 0.00 0.00 69 1016.1
20171021204307 67 89 2.0 5.0 0.00 0.00 0.00 70 1016.3
20171021203808 67 102 3.0 8.0 0.00 0.00 0.00 71 1016.3
20171021203307 67 104 0.0 5.0 0.00 0.00 0.00 73 1016.3
20171021202808 67 98 2.0 2.0 0.00 0.00 0.00 74 1016.3
20171021202307 67 98 0.0 0.0 0.00 0.00 0.00 75 1016.3
20171021201807 67 80 0.0 5.0 0.00 0.00 0.00 74 1016.3
20171021201307 68 120 3.0 8.0 0.00 0.00 0.00 74 1016.3
20171021200808 68 144 4.0 8.0 0.00 0.00 0.00 74 1016.3
20171021200307 68 127 5.0 8.0 0.00 0.00 0.00 75 1016.3
20171021195807 68 151 5.0 10.0 0.00 0.00 0.00 75 1016.3
20171021195308 68 141 4.0 8.0 0.00 0.00 0.00 76 1016.3
20171021194807 68 162 4.0 8.0 0.00 0.00 0.00 75 1016.3
20171021194307 68 159 3.0 8.0 0.00 0.00 0.00 75 1016.3
20171021193807 68 162 3.0 8.0 0.00 0.00 0.00 75 1016.3
20171021193307 68 168 3.0 5.0 0.00 0.00 0.00 75 1016.3
20171021192808 68 154 3.0 8.0 0.00 0.00 0.00 75 1016.3
20171021192307 68 150 3.0 5.0 0.00 0.00 0.00 75 1016.3
20171021191807 68 140 3.0 8.0 0.00 0.00 0.00 75 1016.3
20171021191307 68 140 1.0 8.0 0.00 0.00 0.00 75 1016.3
20171021190808 69 138 2.0 8.0 0.00 0.00 0.00 75 1016.3
20171021190307 69 171 3.0 8.0 0.00 0.00 0.00 74 1016.3
20171021185807 69 149 3.0 8.0 0.00 0.00 0.00 74 1016.3
20171021185307 69 154 3.0 8.0 0.00 0.00 0.00 74 1016.3
20171021184807 69 163 4.0 8.0 0.00 0.00 0.00 74 1016.0
20171021184307 69 152 3.0 8.0 0.00 0.00 0.00 73 1016.3
20171021183807 69 151 5.0 8.0 0.00 0.00 0.00 73 1016.3
20171021183307 69 142 4.0 8.0 0.00 0.00 0.00 72 1016.3
20171021182807 69 146 3.0 8.0 0.00 0.00 0.00 72 1016.3
20171021182307 69 155 5.0 8.0 0.00 0.00 0.00 71 1015.9
20171021181807 70 157 6.0 10.0 0.00 0.00 0.00 71 1015.9
20171021181307 70 161 5.0 10.0 0.00 0.00 0.00 70 1015.9
20171021180807 70 135 6.0 13.0 0.00 0.00 0.00 69 1015.9
20171021180307 70 156 6.0 10.0 0.00 0.00 0.00 68 1015.9
20171021175807 70 152 5.0 10.0 0.00 0.00 0.00 68 1015.9
20171021175307 70 158 5.0 10.0 0.00 0.00 0.00 67 1015.9
20171021174807 70 162 3.0 10.0 0.00 0.00 0.00 67 1015.9
20171021174307 70 144 5.0 8.0 0.00 0.00 0.00 67 1015.9
20171021173806 70 157 6.0 8.0 0.00 0.00 0.00 66 1015.9
20171021173307 70 160 4.0 8.0 0.00 0.00 0.00 66 1015.9
20171021172806 71 163 4.0 8.0 0.00 0.00 0.00 65 1015.9
20171021172307 71 166 4.0 10.0 0.00 0.00 0.00 65 1015.9
20171021171807 71 146 5.0 8.0 0.00 0.00 0.00 65 1015.9
20171021171307 71 158 3.0 10.0 0.00 0.00 0.00 64 1015.9
20171021170807 71 166 6.0 10.0 0.00 0.00 0.00 64 1015.9
20171021170307 71 143 4.0 8.0 0.00 0.00 0.00 64 1015.9
20171021165807 71 158 4.0 8.0 0.00 0.00 0.00 64 1015.9
20171021165307 71 142 5.0 8.0 0.00 0.00 0.00 63 1015.9
20171021164806 71 149 3.0 5.0 0.00 0.00 0.00 63 1015.9
20171021164306 71 165 4.0 8.0 0.00 0.00 0.00 63 1015.9
20171021163807 72 145 2.0 5.0 0.00 0.00 0.00 63 1015.9
20171021163307 72 172 3.0 10.0 0.00 0.00 0.00 62 1015.9
20171021162807 72 151 3.0 10.0 0.00 0.00 0.00 62 1015.9
20171021162307 72 150 4.0 8.0 0.00 0.00 0.00 62 1015.9
20171021161807 72 128 3.0 8.0 0.00 0.00 0.00 62 1015.9
20171021161306 72 149 4.0 10.0 0.00 0.00 0.00 62 1015.9
20171021160806 72 151 5.0 10.0 0.00 0.00 0.00 62 1015.9
20171021160307 72 162 6.0 10.0 0.00 0.00 0.00 62 1015.9
20171021155806 73 154 4.0 5.0 0.00 0.00 0.00 65 1015.9
20171021155306 73 164 2.0 5.0 0.00 0.00 0.00 65 1015.9
20171021154807 73 179 0.0 5.0 0.00 0.00 0.00 62 1015.9
20171021154307 73 168 2.0 5.0 0.00 0.00 0.00 62 1015.9
20171021153807 74 176 2.0 5.0 0.00 0.00 0.00 61 1015.9
20171021153306 74 169 3.0 5.0 0.00 0.00 0.00 60 1015.9
20171021152807 75 140 3.0 8.0 0.00 0.00 0.00 59 1015.9
20171021152306 75 153 2.0 8.0 0.00 0.00 0.00 57 1015.9
20171021151807 75 183 3.0 5.0 0.00 0.00 0.00 55 1015.9
20171021151306 75 148 5.0 8.0 0.00 0.00 0.00 55 1015.9
20171021150806 75 161 6.0 8.0 0.00 0.00 0.00 54 1015.6
20171021150307 75 175 2.0 5.0 0.00 0.00 0.00 51 1015.9
20171021145807 74 146 3.0 10.0 0.00 0.00 0.00 50 1015.9
20171021145307 74 129 1.0 2.0 0.00 0.00 0.00 53 1015.8
20171021144806 74 127 0.0 0.0 0.00 0.00 0.00 54 1015.6
20171021144306 75 86 0.0 0.0 0.00 0.00 0.00 56 1015.6
20171021143806 75 87 0.0 5.0 0.00 0.00 0.00 57 1015.8
20171021143306 76 100 2.0 5.0 0.00 0.00 0.00 58 1015.8
20171021142806 76 95 0.0 0.0 0.00 0.00 0.00 58 1015.6
20171021142306 76 49 0.0 0.0 0.00 0.00 0.00 53 1015.6
20171021141807 76 25 0.0 0.0 0.00 0.00 0.00 55 1015.6
20171021141307 76 14 0.0 0.0 0.00 0.00 0.00 49 1015.7
20171021140806 76 344 0.0 0.0 0.00 0.00 0.00 51 1015.6
20171021140306 76 347 0.0 2.0 0.00 0.00 0.00 54 1015.9
20171021135806 76 333 0.0 2.0 0.00 0.00 0.00 55 1015.9
20171021135306 75 344 0.0 2.0 0.00 0.00 0.00 57 1015.9
20171021134806 75 17 0.0 2.0 0.00 0.00 0.00 56 1015.9
20171021134305 75 30 0.0 2.0 0.00 0.00 0.00 56 1015.9
20171021133806 74 25 0.0 2.0 0.00 0.00 0.00 59 1015.9
20171021133306 74 4 1.0 5.0 0.00 0.00 0.00 58 1015.9
20171021132806 75 6 2.0 8.0 0.00 0.00 0.00 60 1015.9
20171021132306 75 11 1.0 5.0 0.00 0.00 0.00 60 1015.9
20171021131806 75 88 2.0 5.0 0.00 0.00 0.00 58 1015.9
20171021131306 76 50 2.0 5.0 0.00 0.00 0.00 54 1015.9
20171021130806 76 332 0.0 2.0 0.00 0.00 0.00 56 1016.0
20171021130306 76 351 0.0 2.0 0.00 0.00 0.00 57 1016.3
20171021125806 76 2 0.0 2.0 0.00 0.00 0.00 56 1016.3
20171021125306 76 345 0.0 2.0 0.00 0.00 0.00 58 1016.3
20171021124806 76 31 0.0 2.0 0.00 0.00 0.00 58 1016.3
20171021124306 76 191 0.0 5.0 0.00 0.00 0.00 59 1016.3
20171021123806 76 261 0.0 2.0 0.00 0.00 0.00 58 1016.3
20171021123306 76 286 0.0 2.0 0.00 0.00 0.00 56 1016.3
20171021122806 76 3 1.0 5.0 0.00 0.00 0.00 57 1016.3
20171021122306 76 96 0.0 2.0 0.00 0.00 0.00 59 1016.3
20171021121806 76 7 0.0 2.0 0.00 0.00 0.00 59 1016.3
20171021121306 75 186 0.0 2.0 0.00 0.00 0.00 61 1016.3
20171021120807 75 55 0.0 2.0 0.00 0.00 0.00 61 1016.3
20171021120306 75 309 1.0 2.0 0.00 0.00 0.00 62 1016.3
20171021115806 74 48 0.0 2.0 0.00 0.00 0.00 62 1016.3
20171021115306 74 53 0.0 2.0 0.00 0.00 0.00 65 1016.3
20171021114806 74 345 1.0 2.0 0.00 0.00 0.00 64 1016.5
20171021114306 74 48 0.0 5.0 0.00 0.00 0.00 65 1016.6
20171021113805 73 276 1.0 2.0 0.00 0.00 0.00 65 1016.6
20171021113306 73 265 1.0 5.0 0.00 0.00 0.00 68 1016.6
20171021112806 73 24 1.0 5.0 0.00 0.00 0.00 67 1016.9
20171021112306 73 30 1.0 5.0 0.00 0.00 0.00 67 1016.9
20171021111806 73 357 1.0 5.0 0.00 0.00 0.00 70 1016.9
20171021111306 73 345 0.0 5.0 0.00 0.00 0.00 69 1016.9
20171021110806 73 322 1.0 8.0 0.00 0.00 0.00 68 1016.9
20171021110306 72 21 1.0 8.0 0.00 0.00 0.00 69 1016.9
20171021105806 72 22 2.0 8.0 0.00 0.00 0.00 68 1016.9
20171021105306 72 34 0.0 2.0 0.00 0.00 0.00 68 1016.9
20171021104805 71 5 1.0 5.0 0.00 0.00 0.00 69 1017.3
20171021104305 71 219 1.0 2.0 0.00 0.00 0.00 70 1017.3
20171021103806 71 20 1.0 5.0 0.00 0.00 0.00 72 1017.2
20171021103306 71 218 2.0 8.0 0.00 0.00 0.00 72 1017.3
20171021102806 71 12 1.0 5.0 0.00 0.00 0.00 70 1017.3
20171021102305 71 346 2.0 5.0 0.00 0.00 0.00 72 1017.3
20171021101806 71 29 2.0 5.0 0.00 0.00 0.00 72 1017.4
20171021101305 71 354 0.0 5.0 0.00 0.00 0.00 71 1017.6
20171021100805 71 4 1.0 5.0 0.00 0.00 0.00 72 1017.6
20171021100306 71 298 2.0 8.0 0.00 0.00 0.00 74 1017.9
20171021095805 71 125 1.0 5.0 0.00 0.00 0.00 72 1017.9